Flag for Turkey Weather past 2 weeks in Gaziantep, Turkey

Now
75 °F

Clear.


Feels Like: 77 °F
Forecast: 69 / 103 °F
Wind: No wind

Location: Gaziantep Airport

Current Time: Jul 29, 2015 at 1:41:39 AM

Latest Report: Jul 29, 2015 at 12:50 AM


Visibility: 10 mi

Pressure: 29.77 "Hg (26.98 "Hg at 856m altitude)

Humidity: 61%

Dew point: 61 °F

Location of GaziantepLocation

Historic Weather in Gaziantep — Graph

°F

Gaziantep temperature yesterday

Maximum temperature yesterday: 100 °F (at 2:50 PM)
Minimum temperature yesterday: 66 °F (at 5:50 AM)
Average temperature yesterday: 85 °F

Past Weeks' High & Low Weather Summary

 TemperatureHumidityPressure
High104 °F (Jul 22, 1:50 PM)78% (Jul 28, 4:20 AM)29.89 "Hg (Jul 28, 4:20 AM)
Low61 °F (Jul 26, 4:20 AM)6% (Jul 19, 12:50 PM)29.62 "Hg (Jul 21, 5:20 PM)
Average87 °F27%29.74 "Hg
* Reported Jul 13 11:20 PM — Jul 28 11:20 PM, Gaziantep, Weather by CustomWeather, © 2015

Note: Actual official high and low records may vary slightly from our data, if they occured in-between our weather recording intervals... More about our weather records

Advertising

Gaziantep weather history for previous 24 hours

 ConditionsComfort  
Time TempWeatherWind HumidityBarometerVisibility
11:20 PM
Tue, Jul 28
77 °FClear.1 mph61%29.77 "Hg10 mi
10:50 PM81 °FClear.2 mph54%29.74 "Hg10 mi
10:20 PM81 °FClear.No wind54%29.74 "Hg10 mi
9:50 PM82 °FClear.2 mph51%29.74 "Hg10 mi
9:20 PM82 °FClear.5 mph51%29.74 "Hg10 mi
8:50 PM84 °FClear.3 mph48%29.74 "Hg10 mi
8:20 PM86 °FSunny.6 mph40%29.71 "Hg10 mi
7:50 PM88 °FClear.9 mph35%29.71 "Hg6 mi
6:50 PM95 °FSunny.6 mph13%29.71 "Hg10 mi
6:20 PM97 °FSunny.9 mph12%29.71 "Hg10 mi
5:50 PM97 °FPassing clouds.9 mph16%29.68 "HgN/A
5:20 PM99 °FPassing clouds.8 mph11%29.68 "HgN/A
4:50 PM99 °FPassing clouds.6 mph14%29.68 "HgN/A
4:20 PM99 °FPassing clouds.9 mph14%29.71 "HgN/A
3:50 PM100 °FPassing clouds.9 mph11%29.71 "HgN/A
3:20 PM99 °FPassing clouds.13 mph14%29.71 "HgN/A
2:50 PM100 °FPassing clouds.12 mph12%29.71 "HgN/A
2:20 PM99 °FPassing clouds.9 mph11%29.71 "HgN/A
1:50 PM99 °FPassing clouds.7 mph14%29.71 "HgN/A
1:20 PM97 °FPassing clouds.6 mph18%29.71 "HgN/A
12:50 PM97 °FSunny.5 mph22%29.74 "Hg10 mi
12:20 PM95 °FPassing clouds.6 mph22%29.74 "HgN/A
11:50 AM93 °FSunny.2 mph28%29.74 "Hg10 mi
11:20 AM91 °FPassing clouds.3 mph34%29.74 "HgN/A
10:50 AM91 °FPassing clouds.6 mph32%29.74 "HgN/A
10:20 AM91 °FSunny.1 mph32%29.74 "Hg10 mi
9:50 AM90 °FSunny.No wind33%29.74 "Hg10 mi
9:20 AM88 °FSunny.No wind35%29.74 "Hg10 mi
8:50 AM86 °FSunny.No wind40%29.74 "Hg10 mi
8:20 AM84 °FSunny.No wind48%29.74 "Hg10 mi
7:50 AM81 °FSunny.1 mph54%29.74 "Hg10 mi
7:20 AM75 °FSunny.No wind65%29.71 "Hg10 mi
6:50 AM73 °FSunny.No wind65%29.71 "Hg10 mi
6:20 AM68 °FClear.No wind73%29.71 "Hg10 mi
5:50 AM66 °FClear.1 mph78%29.68 "Hg10 mi
5:20 AM68 °FClear.No wind73%29.68 "Hg10 mi
4:50 AM68 °FClear.No wind73%29.68 "Hg10 mi
4:20 AM68 °FClear.No wind78%29.68 "Hg10 mi
3:50 AM72 °FClear.5 mph69%29.68 "Hg10 mi
3:20 AM72 °FClear.5 mph69%29.68 "Hg10 mi
2:50 AM72 °FClear.6 mph69%29.68 "Hg10 mi
2:20 AM73 °FClear.8 mph65%29.68 "Hg10 mi
1:50 AM75 °FClear.7 mph61%29.68 "Hg10 mi
1:20 AM75 °FPassing clouds.3 mph61%29.71 "HgN/A
Weather by CustomWeather, © 2015

See weather overviewHow to use our weather pages